Location: Chmeln�
(49.6483°N, 14.9871°E)
Time: 02:45:32
(UTC+00:00)

Cosmos 2227 Rocket - Pass Details

Date: 18 September 2020
Orbit: 840 x 844 km, 71.0° (Epoch: 24 October)

Event Time Altitude Azimuth Distance (km) Brightness Sun altitude
Rises 23:35:13 0° 334° (NNW) 3,407 5.9 -38.2°
Reaches altitude 10° 23:38:07 10° 347° (NNW) 2,469 5.2 -38.1°
Maximum altitude 23:42:46 25° 43° (NE) 1,627 4.1 -37.9°
Enters shadow 23:43:04 25° 48° (NE) 1,632 4.0 -37.9°
